St. Joseph, KS

7:26 PM CDT on September 25, 2017 (GMT -0500)
Rosecrans Memorial

Weather History for KSTJ - August, 2012

Change the Weather History Date:

Monday, August 6, 2012

  Actual Average Record
Temperature  
Mean Temperature 76 °F 77 °F  
Max Temperature 95 °F 87 °F 108 °F (1934)
Min Temperature 56 °F 66 °F 54 °F (1990)
Degree Days  
Heating Degree Days 0 0  
Month to date heating degree days 0 0  
Since 1 June heating degree days 8 9  
Since 1 July heating degree days 0 1  
Cooling Degree Days 11 12  
Month to date cooling degree days 81 72  
Year to date cooling degree days 1251 826  
Since 1 June cooling degree days 984 713  
Growing Degree Days 26 (Base 50)    
Moisture  
Dew Point 56 °F    
Average Humidity 58    
Maximum Humidity 93    
Minimum Humidity 23    
Precipitation  
Precipitation 0.00 in 0.12 in 2.81 in (1938)
Month to date precipitation 0.33 0.63  
Year to date precipitation 15.47 22.95  
Sea Level Pressure  
Sea Level Pressure 30.07 in    
Wind  
Wind Speed 3 mph (South)    
Max Wind Speed 9 mph    
Max Gust Speed 15 mph    
Visibility 10 miles    
Events      
T = Trace of Precipitation, MM = Missing Value Source: NWS Daily Summary

Daily Weather History Graph

Daily Weather History Graph

Search for Another Location

Airport or City:

Trip Planner

Search our weather history database for the weather conditions in past years. The results will help you decide how hot, cold, wet, or windy it might be!

Date:

Astronomy

Aug. 06, 2012 Rise Set
Actual Time 6:23 AM CDT 8:26 PM CDT
Civil Twilight 5:54 AM CDT 8:56 PM CDT
Nautical Twilight 5:17 AM CDT 9:32 PM CDT
Astronomical Twilight 4:38 AM CDT 10:11 PM CDT
Moon 10:36 PM CDT (8/6) 11:12 AM CDT (8/6)
Length of Visible Light 15h 02m
Length of Day
14h 02m
Waning Gibbous, 78% of the Moon is Illuminated
Aug 6
Waning Gibbous
Aug 9
Last Quarter
Aug 17
New
Aug 24
First Quarter
Aug 31
Full

Hourly Weather History & Observations

Time (CDT) Temp. Heat Index Dew Point Humidity Pressure Visibility Wind Dir Wind Speed Gust Speed Precip Events Conditions
12:53 AM 60.1 °F - 54.0 °F 80% 30.16 in 10.0 mi Calm Calm - N/A   Clear
1:53 AM 59.0 °F - 55.0 °F 87% 30.14 in 10.0 mi Calm Calm - N/A   Clear
2:53 AM 57.9 °F - 55.0 °F 90% 30.14 in 10.0 mi Calm Calm - N/A   Clear
3:53 AM 57.0 °F - 54.0 °F 89% 30.14 in 10.0 mi West 3.5 mph - N/A   Clear
4:53 AM 57.0 °F - 54.0 °F 89% 30.14 in 10.0 mi Calm Calm - N/A   Clear
5:53 AM 57.9 °F - 54.0 °F 87% 30.13 in 10.0 mi Calm Calm - N/A   Clear
6:53 AM 64.0 °F - 54.0 °F 70% 30.13 in 10.0 mi ESE 8.1 mph - N/A   Clear
7:53 AM 68.0 °F - 55.0 °F 63% 30.14 in 10.0 mi ESE 5.8 mph - N/A   Clear
8:53 AM 73.0 °F - 55.9 °F 55% 30.14 in 10.0 mi Calm Calm - N/A   Clear
9:53 AM 75.9 °F - 59.0 °F 56% 30.14 in 10.0 mi Calm Calm - N/A   Clear
10:53 AM 82.0 °F 82.1 °F 59.0 °F 45% 30.12 in 10.0 mi SE 5.8 mph - N/A   Clear
11:53 AM 86.0 °F 85.0 °F 57.9 °F 38% 30.11 in 10.0 mi South 5.8 mph - N/A   Clear
12:53 PM 88.0 °F 86.7 °F 57.0 °F 35% 30.09 in 10.0 mi SSW 6.9 mph - N/A   Clear
1:53 PM 90.0 °F 88.8 °F 57.9 °F 34% 30.06 in 10.0 mi SSW 3.5 mph - N/A   Clear
2:53 PM 93.0 °F 91.1 °F 55.0 °F 28% 30.04 in 10.0 mi Calm Calm - N/A   Clear
3:53 PM 95.0 °F - 52.0 °F 23% 30.01 in 10.0 mi Variable 3.5 mph - N/A   Clear
4:53 PM 93.9 °F 91.4 °F 53.1 °F 25% 29.99 in 10.0 mi South 4.6 mph - N/A   Clear
5:53 PM 91.9 °F 89.5 °F 54.0 °F 27% 29.98 in 10.0 mi South 6.9 mph - N/A   Clear
6:53 PM 90.0 °F 87.9 °F 55.0 °F 30% 29.97 in 10.0 mi South 5.8 mph - N/A   Clear
7:53 PM 87.1 °F 85.9 °F 57.0 °F 36% 29.96 in 10.0 mi South 4.6 mph - N/A   Clear
8:53 PM 80.1 °F 81.1 °F 61.0 °F 52% 29.96 in 10.0 mi SE 5.8 mph - N/A   Clear
9:53 PM 72.0 °F - 62.1 °F 71% 29.98 in 10.0 mi Calm Calm - N/A   Clear
10:53 PM 71.1 °F - 61.0 °F 70% 29.99 in 10.0 mi South 3.5 mph - N/A   Clear
11:53 PM 69.1 °F - 62.1 °F 78% 29.98 in 10.0 mi Calm Calm - N/A   Clear